This is the latest recevied weather packets stored in our database for station/object WP3OF-3. If no packets are shown the sender has not sent any weather packets the latest 10 day(s).
| Time | Temp. | Humidity | Pressure | Rain* | Wind** | Luminosity | Snow |
|---|---|---|---|---|---|---|---|
| 1777676202 | 23.33° C | 92% | 1016.8 hPa | 25.91 mm | - | - | - |
| 1777675898 | 23.33° C | 92% | 1016.9 hPa | 36.58 mm | - | - | - |
| 1777675595 | 23.89° C | 92% | 1016.9 hPa | 21.08 mm | - | - | - |
| 1777675292 | 23.89° C | 92% | 1016.7 hPa | 14.99 mm | - | - | - |
| 1777674989 | 24.44° C | 92% | 1016.6 hPa | 10.67 mm | - | - | - |
| 1777674686 | 24.44° C | 92% | 1016.5 hPa | 6.1 mm | - | - | - |
| 1777674388 | 24.44° C | 92% | 1016.2 hPa | 0 mm | - | - | - |
| 1777674079 | 24.44° C | 91% | 1016.2 hPa | 0 mm | - | - | - |
| 1777673775 | 24.44° C | 90% | 1016.2 hPa | 1.78 mm | - | - | - |
| 1777673473 | 24.44° C | 88% | 1016.2 hPa | 12.7 mm | - | - | - |
| 1777673171 | 25.56° C | 85% | 1016.3 hPa | 8.89 mm | - | - | - |
| 1777672867 | 26.11° C | 84% | 1016.1 hPa | 0 mm | - | - | - |
| 1777672564 | 26.11° C | 83% | 1016.2 hPa | 0 mm | - | - | - |
| 1777672259 | 26.11° C | 83% | 1016.2 hPa | 0 mm | - | - | - |
| 1777671954 | 26.11° C | 84% | 1015.8 hPa | 0 mm | - | - | - |
| 1777671650 | 26.11° C | 84% | 1016.1 hPa | 0 mm | - | - | - |
| 1777671347 | 26.11° C | 84% | 1016 hPa | 0 mm | - | - | - |
| 1777671043 | 26.11° C | 83% | 1016.2 hPa | 0 mm | - | - | - |
| 1777670740 | 26.11° C | 83% | 1016.1 hPa | 0 mm | - | - | - |
| 1777670437 | 26.11° C | 83% | 1015.8 hPa | 0 mm | - | - | - |
| 1777670133 | 26.11° C | 82% | 1015.8 hPa | 0 mm | - | - | - |
| 1777669832 | 26.11° C | 83% | 1016.1 hPa | 0 mm | - | - | - |
| 1777669527 | 26.11° C | 83% | 1015.9 hPa | 0 mm | - | - | - |
| 1777669224 | 26.11° C | 82% | 1015.9 hPa | 0 mm | - | - | - |
| 1777668921 | 26.67° C | 81% | 1016 hPa | 0 mm | - | - | - |
* Rain latest hour (hover to see other rain measurements)
** Current wind speed in m/s (hover to see current wind gust speed)